Home   Weather   Arlington   Past weeks

Flag for USA Past Weather in Arlington, Texas, USA — Yesterday and Last 2 Weeks

Now
62 °F

Passing clouds.


Feels Like: 62 °F
Forecast: 60 / 74 °F
Wind: 7 mph from Southeast

Location: Arlington Municipal Airport

Current Time: Feb 19, 2017 at 6:10:58 am

Latest Report: Feb 19, 2017 at 5:36 am


Visibility: 10 mi

Pressure: 29.87 "Hg

Humidity: 90%

Dew Point: 59 °F

Location of ArlingtonLocation

Past Weather in Arlington — Graph

°F

Arlington Temperature Yesterday

Maximum temperature yesterday: 80 °F (at 4:53 pm)
Minimum temperature yesterday: 59 °F (at 1:53 am)
Average temperature yesterday: 65 °F

High & Low Weather Summary for the Past Weeks

 TemperatureHumidityPressure
High86 °F (Feb 11, 3:53 pm)97% (Feb 12, 5:38 am)30.41 "Hg (Feb 12, 5:38 am)
Low31 °F (Feb 16, 4:53 am)19% (Feb 7, 2:53 pm)29.62 "Hg (Feb 8, 3:53 am)
Average58 °F63%29.98 "Hg
* Reported Feb 4 4:53 am — Feb 19 4:53 am, Arlington, Weather by CustomWeather, © 2017

Note: Actual official high and low records may vary slightly from our data, if they occured in-between our weather recording intervals... More about our weather records

Advertising

Arlington Weather History for the Previous 24 Hours

Scroll right to see more
 ConditionsComfort  
Time TempWeatherWind HumidityBarometerVisibility
4:53 am
Sun, Feb 19
61 °FClear.7 mph93%29.83 "Hg9 mi
3:53 am64 °FPassing clouds.9 mph87%29.83 "Hg10 mi
3:16 am64 °FPassing clouds.10 mph87%29.85 "Hg10 mi
2:53 am64 °FPassing clouds.10 mph84%29.83 "Hg10 mi
2:30 am62 °FPassing clouds.10 mph80%29.85 "Hg10 mi
1:53 am56 °FClear.5 mph77%29.82 "Hg10 mi
12:53 am56 °FClear.No wind77%29.82 "Hg10 mi
11:53 pm
Sat, Feb 18
62 °FClear.No wind62%29.80 "Hg10 mi
10:53 pm60 °FClear.6 mph67%29.79 "Hg10 mi
9:53 pm59 °FClear.No wind67%29.78 "Hg10 mi
8:53 pm59 °FClear.No wind64%29.77 "Hg10 mi
7:53 pm63 °FClear.No wind54%29.75 "Hg10 mi
6:53 pm72 °FClear.6 mph38%29.72 "Hg10 mi
5:53 pm78 °FSunny.5 mph30%29.71 "Hg10 mi
4:53 pm80 °FSunny.7 mph29%29.71 "Hg10 mi
3:53 pm79 °FSunny.6 mph30%29.70 "Hg10 mi
2:53 pm78 °FSunny.5 mph35%29.70 "Hg10 mi
1:53 pm77 °FSunny.10 mph39%29.71 "Hg10 mi
12:53 pm75 °FSunny.7 mph42%29.74 "Hg10 mi
11:53 am73 °FSunny.10 mph43%29.76 "Hg10 mi
10:53 am69 °FSunny.8 mph61%29.78 "Hg10 mi
9:53 am63 °FSunny.8 mph78%29.78 "Hg10 mi
8:53 am61 °FPartly sunny.12 mph83%29.76 "Hg10 mi
7:53 am60 °FOvercast.12 mph86%29.74 "Hg10 mi
6:53 am60 °FOvercast.12 mph86%29.71 "Hg10 mi
Weather by CustomWeather, © 2017

See weather overviewHow to use our weather pages